This is the latest recevied weather packets stored in our database for station/object N0QV. If no packets are shown the sender has not sent any weather packets the latest 10 day(s).
| Time | Temp. | Humidity | Pressure | Rain* | Wind** | Luminosity | Snow |
|---|---|---|---|---|---|---|---|
| 1787874831 | 25° C | 53% | 1018.4 hPa | 0 mm | - | 39 W/m² | - |
| 1787874530 | 25° C | 52% | 1018.4 hPa | 0 mm | - | 37 W/m² | - |
| 1787874225 | 25° C | 53% | 1018.4 hPa | 0 mm | - | 40 W/m² | - |
| 1787873920 | 25° C | 53% | 1018.4 hPa | 0 mm | - | 41 W/m² | - |
| 1787873619 | 25° C | 54% | 1018.4 hPa | 0 mm | - | 44 W/m² | - |
| 1787873314 | 25° C | 53% | 1018.5 hPa | 0 mm | - | 46 W/m² | - |
| 1787873013 | 25.56° C | 52% | 1018.4 hPa | 0 mm | - | 49 W/m² | - |
| 1787872708 | 25.56° C | 52% | 1018.7 hPa | 0 mm | - | 55 W/m² | - |
| 1787872404 | 25.56° C | 52% | 1018.6 hPa | 0 mm | - | 58 W/m² | - |
| 1787872099 | 25.56° C | 51% | 1018.4 hPa | 0 mm | - | 61 W/m² | - |
| 1787871807 | 26.11° C | 49% | 1018.4 hPa | 0 mm | - | 58 W/m² | - |
| 1787871494 | 26.67° C | 48% | 1018.5 hPa | 0 mm | - | 189 W/m² | - |
| 1787871189 | 26.67° C | 47% | 1018.5 hPa | 0 mm | - | 203 W/m² | - |
| 1787870889 | 27.22° C | 46% | 1018.4 hPa | 0 mm | - | 231 W/m² | - |
| 1787870584 | 26.67° C | 47% | 1018.5 hPa | 0 mm | - | 245 W/m² | - |
| 1787870279 | 27.22° C | 46% | 1018.5 hPa | 0 mm | - | 253 W/m² | - |
| 1787869974 | 26.67° C | 47% | 1018.5 hPa | 0 mm | - | 230 W/m² | - |
| 1787869674 | 26.67° C | 46% | 1018.5 hPa | 0 mm | - | 234 W/m² | - |
| 1787869373 | 27.22° C | 48% | 1018.5 hPa | 0 mm | - | 268 W/m² | - |
| 1787869073 | 27.22° C | 49% | 1018.5 hPa | 0 mm | - | 282 W/m² | - |
| 1787868772 | 27.22° C | 48% | 1018.7 hPa | 0 mm | - | 317 W/m² | - |
| 1787868471 | 26.67° C | 49% | 1018.5 hPa | 0 mm | - | 323 W/m² | - |
| 1787868170 | 26.67° C | 48% | 1018.6 hPa | 0 mm | - | 306 W/m² | - |
| 1787867865 | 27.22° C | 48% | 1018.7 hPa | 0 mm | - | 312 W/m² | - |
| 1787867561 | 27.22° C | 46% | 1018.6 hPa | 0 mm | - | 347 W/m² | - |
* Rain latest hour (hover to see other rain measurements)
** Current wind speed in m/s (hover to see current wind gust speed)